Overview Statistics Trail Chart Weather Telemetry Raw packets
 

This is the latest recevied weather packets stored in our database for station/object SV9TNF-57. If no packets are shown the sender has not sent any weather packets the latest 10 day(s).

<< 111 112 113 114 115 >>
Time Temp. Humidity Pressure Rain* Wind** Luminosity Snow
1787820389 34.44° C 32% 995.5 hPa 0 mm 7.15 m/s, 280° - -
1787820088 34.44° C 31% 995.8 hPa 0 mm 5.36 m/s, 152° - -
1787819789 34.44° C 34% 995.7 hPa 0 mm 9.83 m/s, 300° - -
1787819489 33.89° C 34% 995.6 hPa 0 mm 3.58 m/s, 326° - -
1787819188 34.44° C 33% 995.9 hPa 0 mm 5.81 m/s, 308° - -
1787818888 33.89° C 34% 995.7 hPa 0 mm 0.89 m/s, 290° - -
1787818588 33.89° C 34% 995.7 hPa 0 mm 2.24 m/s, 252° - -
1787818293 34.44° C 34% 995.4 hPa 0 mm 2.24 m/s, 311° - -
1787817988 33.89° C 34% 995.6 hPa 0 mm 1.79 m/s, 282° - -
1787817688 33.89° C 34% 995.6 hPa 0 mm 2.68 m/s, 320° - -
1787817388 33.89° C 34% 995.6 hPa 0 mm 8.49 m/s, 314° - -
1787817087 33.33° C 34% 995.7 hPa 0 mm 7.6 m/s, 313° - -
1787816787 33.89° C 34% 995.6 hPa 0 mm 3.58 m/s, 297° - -
1787816487 33.33° C 33% 995.4 hPa 0 mm 0.89 m/s, 280° - -
1787816187 33.33° C 34% 995.7 hPa 0 mm 6.71 m/s, 74° - -
1787815887 33.33° C 34% 995.3 hPa 0 mm 2.68 m/s, 284° - -
1787815588 33.33° C 34% 995.4 hPa 0 mm 5.36 m/s, 297° - -
1787815289 33.33° C 34% 995.3 hPa 0 mm 12.07 m/s, 348° - -
1787814993 33.89° C 33% 995.1 hPa 0 mm 0.45 m/s, 136° - -
1787814687 33.33° C 34% 995.2 hPa 0 mm 1.34 m/s, 335° - -
1787814387 33.33° C 33% 995.1 hPa 0 mm 2.68 m/s, 327° - -
1787814086 32.78° C 34% 995.3 hPa 0 mm 11.18 m/s, 346° - -
1787813786 32.78° C 34% 995.2 hPa 0 mm 5.36 m/s, 250° - -
1787813486 32.78° C 34% 995.1 hPa 0 mm 4.02 m/s, 313° - -
1787813186 32.78° C 35% 995 hPa 0 mm 7.6 m/s, 325° - -

* Rain latest hour (hover to see other rain measurements)
** Current wind speed in m/s (hover to see current wind gust speed)